TimePST,TemperatureF,Dew PointF,Humidity,Sea Level PressureIn,VisibilityMPH,Wind Direction,Wind SpeedMPH,Gust SpeedMPH,PrecipitationIn,Events,Conditions,WindDirDegrees,DateUTC
12:10 AM,55.4,53.6,94,30.02,2.0,SSW,6.9,-,N/A,Rain,Light Rain,200,2012-11-18 08:10:00
12:30 AM,55.4,53.6,94,30.02,1.2,SSE,5.8,-,N/A,Rain,Light Rain,150,2012-11-18 08:30:00
12:50 AM,55.4,53.6,94,30.02,2.5,SSE,5.8,-,N/A,Rain,Light Rain,150,2012-11-18 08:50:00
1:10 AM,55.4,53.6,94,30.02,1.2,South,9.2,-,N/A,Rain,Light Rain,180,2012-11-18 09:10:00
1:30 AM,53.6,53.6,100,30.01,1.2,SE,10.4,-,N/A,Rain,Light Rain,130,2012-11-18 09:30:00
1:50 AM,53.6,53.6,100,30.02,2.5,SSE,6.9,-,N/A,Rain,Light Rain,160,2012-11-18 09:50:00
2:10 AM,53.6,51.8,94,30.02,10.0,South,10.4,-,N/A,,Overcast,170,2012-11-18 10:10:00
2:30 AM,53.6,51.8,94,30.03,10.0,South,8.1,-,N/A,,Overcast,180,2012-11-18 10:30:00
2:50 AM,53.6,50.0,88,30.03,10.0,South,10.4,-,N/A,,Overcast,180,2012-11-18 10:50:00
3:10 AM,51.8,50.0,94,30.03,10.0,SSE,9.2,-,N/A,,Mostly Cloudy,160,2012-11-18 11:10:00
3:30 AM,51.8,50.0,94,30.03,10.0,SSE,11.5,-,N/A,,Overcast,150,2012-11-18 11:30:00
3:50 AM,51.8,50.0,94,30.04,10.0,SSE,9.2,-,N/A,,Overcast,160,2012-11-18 11:50:00
4:10 AM,51.8,50.0,94,30.04,10.0,SSE,9.2,-,N/A,,Overcast,160,2012-11-18 12:10:00
4:30 AM,51.8,50.0,94,30.05,10.0,SSE,8.1,-,N/A,,Overcast,160,2012-11-18 12:30:00
4:50 AM,51.8,50.0,94,30.06,10.0,South,8.1,-,N/A,,Overcast,170,2012-11-18 12:50:00
5:10 AM,50.0,50.0,100,30.06,10.0,South,9.2,-,N/A,,Mostly Cloudy,180,2012-11-18 13:10:00
5:30 AM,50.0,48.2,94,30.06,10.0,South,6.9,-,N/A,,Scattered Clouds,180,2012-11-18 13:30:00
5:50 AM,50.0,48.2,94,30.07,10.0,SSW,5.8,-,N/A,,Partly Cloudy,200,2012-11-18 13:50:00
6:10 AM,50.0,48.2,94,30.07,10.0,South,5.8,-,N/A,,Clear,180,2012-11-18 14:10:00
6:30 AM,48.2,46.4,93,30.08,10.0,SSE,5.8,-,N/A,,Clear,160,2012-11-18 14:30:00
6:50 AM,48.2,46.4,93,30.09,9.0,SSE,5.8,-,N/A,,Clear,160,2012-11-18 14:50:00
7:10 AM,48.2,46.4,93,30.09,8.0,SSE,3.5,-,N/A,,Clear,150,2012-11-18 15:10:00
7:30 AM,48.2,46.4,93,30.11,8.0,SSE,6.9,-,N/A,,Clear,150,2012-11-18 15:30:00
7:50 AM,48.2,48.2,100,30.12,8.0,SE,5.8,-,N/A,,Clear,130,2012-11-18 15:50:00
8:10 AM,48.2,48.2,100,30.12,10.0,SE,6.9,-,N/A,,Clear,140,2012-11-18 16:10:00
8:30 AM,50.0,48.2,94,30.12,8.0,SE,8.1,-,N/A,,Clear,130,2012-11-18 16:30:00
8:50 AM,50.0,48.2,94,30.13,9.0,SSE,6.9,-,N/A,,Clear,150,2012-11-18 16:50:00
9:10 AM,51.8,46.4,82,30.13,9.0,SE,5.8,-,N/A,,Clear,140,2012-11-18 17:10:00
9:30 AM,50.0,46.4,87,30.14,10.0,SSE,8.1,-,N/A,,Clear,150,2012-11-18 17:30:00
9:50 AM,51.8,46.4,82,30.15,10.0,SSE,9.2,-,N/A,,Scattered Clouds,150,2012-11-18 17:50:00
10:10 AM,53.6,46.4,77,30.15,9.0,SSE,8.1,-,N/A,,Mostly Cloudy,160,2012-11-18 18:10:00
10:30 AM,55.4,44.6,67,30.15,9.0,SSE,8.1,-,N/A,,Mostly Cloudy,160,2012-11-18 18:30:00
10:50 AM,55.4,44.6,67,30.15,9.0,SSW,6.9,-,N/A,,Partly Cloudy,200,2012-11-18 18:50:00
11:10 AM,57.2,42.8,59,30.15,10.0,South,3.5,-,N/A,,Scattered Clouds,190,2012-11-18 19:10:00
11:30 AM,57.2,44.6,63,30.14,9.0,SSW,4.6,-,N/A,,Mostly Cloudy,210,2012-11-18 19:30:00
11:50 AM,57.2,44.6,63,30.14,10.0,SSW,5.8,-,N/A,,Scattered Clouds,200,2012-11-18 19:50:00
12:10 PM,59.0,44.6,59,30.13,10.0,SW,8.1,-,N/A,,Clear,220,2012-11-18 20:10:00
12:30 PM,59.0,44.6,59,30.13,10.0,SSW,8.1,-,N/A,,Clear,200,2012-11-18 20:30:00
12:50 PM,59.0,44.6,59,30.13,9.0,SW,9.2,-,N/A,,Partly Cloudy,220,2012-11-18 20:50:00
1:10 PM,59.0,44.6,59,30.13,10.0,SSW,10.4,-,N/A,,Partly Cloudy,210,2012-11-18 21:10:00
1:30 PM,59.0,44.6,59,30.13,10.0,SW,10.4,-,N/A,,Clear,220,2012-11-18 21:30:00
1:50 PM,59.0,44.6,59,30.14,10.0,SW,11.5,-,N/A,,Scattered Clouds,220,2012-11-18 21:50:00
2:10 PM,59.0,44.6,59,30.13,10.0,SSW,10.4,-,N/A,,Scattered Clouds,210,2012-11-18 22:10:00
2:30 PM,59.0,44.6,59,30.13,10.0,South,10.4,-,N/A,,Partly Cloudy,190,2012-11-18 22:30:00
2:50 PM,59.0,44.6,59,30.13,9.0,SSW,6.9,-,N/A,,Clear,210,2012-11-18 22:50:00
3:10 PM,59.0,42.8,55,30.13,10.0,South,8.1,-,N/A,,Clear,190,2012-11-18 23:10:00
3:30 PM,59.0,42.8,55,30.13,10.0,SSW,6.9,-,N/A,,Clear,210,2012-11-18 23:30:00
3:50 PM,59.0,44.6,59,30.14,10.0,SW,4.6,-,N/A,,Clear,230,2012-11-18 23:50:00
4:10 PM,57.2,42.8,59,30.15,10.0,WSW,4.6,-,N/A,,Clear,240,2012-11-19 00:10:00
4:30 PM,57.2,42.8,59,30.15,10.0,WSW,3.5,-,N/A,,Scattered Clouds,240,2012-11-19 00:30:00
4:50 PM,57.2,41.0,55,30.16,10.0,Calm,Calm,-,N/A,,Mostly Cloudy,0,2012-11-19 00:50:00
5:10 PM,57.2,41.0,55,30.16,8.0,Calm,Calm,-,N/A,,Mostly Cloudy,0,2012-11-19 01:10:00
5:30 PM,57.2,42.8,59,30.16,10.0,SE,3.5,-,N/A,,Scattered Clouds,130,2012-11-19 01:30:00
5:50 PM,57.2,42.8,59,30.16,10.0,ESE,3.5,-,N/A,,Mostly Cloudy,120,2012-11-19 01:50:00
6:10 PM,57.2,42.8,59,30.16,10.0,Calm,Calm,-,N/A,,Mostly Cloudy,0,2012-11-19 02:10:00
6:30 PM,55.4,44.6,67,30.16,10.0,ESE,4.6,-,N/A,,Partly Cloudy,120,2012-11-19 02:30:00
6:50 PM,55.4,46.4,72,30.17,10.0,SE,3.5,-,N/A,,Partly Cloudy,140,2012-11-19 02:50:00
7:10 PM,55.4,46.4,72,30.17,10.0,SE,4.6,-,N/A,,Clear,140,2012-11-19 03:10:00
7:30 PM,55.4,48.2,77,30.17,10.0,SE,4.6,-,N/A,,Mostly Cloudy,130,2012-11-19 03:30:00
7:50 PM,55.4,48.2,77,30.17,10.0,ESE,4.6,-,N/A,,Scattered Clouds,120,2012-11-19 03:50:00
8:10 PM,53.6,48.2,82,30.18,10.0,Calm,Calm,-,N/A,,Clear,0,2012-11-19 04:10:00
8:30 PM,55.4,48.2,77,30.18,10.0,ESE,3.5,-,N/A,,Partly Cloudy,110,2012-11-19 04:30:00
8:50 PM,55.4,48.2,77,30.19,10.0,SE,3.5,-,N/A,,Mostly Cloudy,130,2012-11-19 04:50:00
9:10 PM,55.4,48.2,77,30.19,8.0,ESE,4.6,-,N/A,,Overcast,120,2012-11-19 05:10:00
9:30 PM,55.4,48.2,77,30.20,8.0,East,3.5,-,N/A,,Overcast,100,2012-11-19 05:30:00
9:50 PM,53.6,50.0,88,30.20,10.0,Calm,Calm,-,N/A,,Overcast,0,2012-11-19 05:50:00
10:10 PM,53.6,50.0,88,30.20,8.0,Calm,Calm,-,N/A,,Overcast,0,2012-11-19 06:10:00
10:30 PM,53.6,50.0,88,30.20,8.0,Calm,Calm,-,N/A,,Mostly Cloudy,0,2012-11-19 06:30:00
10:50 PM,53.6,50.0,88,30.20,8.0,ESE,4.6,-,N/A,,Mostly Cloudy,110,2012-11-19 06:50:00
11:10 PM,53.6,48.2,82,30.20,7.0,East,5.8,-,N/A,Rain,Light Rain,90,2012-11-19 07:10:00
11:30 PM,53.6,50.0,88,30.20,7.0,ENE,6.9,-,N/A,,Overcast,70,2012-11-19 07:30:00
11:50 PM,53.6,48.2,82,30.20,10.0,East,8.1,-,N/A,,Mostly Cloudy,80,2012-11-19 07:50:00